Theta_e
310 312 312 312 313 312 313 314 313 311 310 310 310 310 311 311 311 310 310 310 310 310 312 312 312 312 313 313 315 313 312 325 338 340 340 341 341 341 342 342 342 342 341 340 340 342 342 342 341 341 340 339 336 335 335 334 332 332 333 332 331 330 329 329 328 328 331 331 331 331 330 329 328 329 330 328 327 328 328 327 327 326 327 328 328 327
310 312 313 313 313 314 316 316 314 311 311 310 310 312 311 312 311 310 310 310 309 310 312 313 312 312 314 314 315 315 311 316 330 338 340 340 341 341 341 341 341 341 340 340 340 340 341 342 341 341 341 340 337 335 335 335 333 332 333 332 331 331 330 328 327 329 331 331 332 332 330 330 329 331 330 328 327 328 328 327 326 326 326 327 328 327
311 313 314 312 312 315 316 314 313 312 312 311 311 312 312 312 311 310 310 309 309 310 312 312 312 312 314 314 314 315 314 314 322 334 339 340 341 341 341 341 340 340 340 340 340 339 340 341 341 341 341 341 338 336 336 336 334 333 333 332 331 332 331 328 327 330 332 331 332 331 330 330 330 331 329 327 328 328 327 325 326 325 325 326 327 327
313 313 312 311 311 314 314 312 312 313 312 311 311 311 312 311 310 312 312 311 310 311 312 312 312 313 314 314 315 314 314 313 315 323 334 340 341 340 340 341 340 339 339 339 339 338 339 340 341 341 341 341 339 337 336 336 335 334 333 332 331 332 332 329 328 330 332 332 332 331 330 330 330 329 328 327 328 328 326 325 325 325 325 326 327 327
313 311 309 309 310 312 313 312 312 312 312 313 312 311 311 311 310 311 312 311 312 312 312 312 312 315 315 315 316 314 313 314 312 313 322 334 340 339 338 340 340 339 339 338 338 339 339 339 340 340 340 341 340 338 337 336 335 335 334 334 332 332 332 331 330 330 331 332 333 331 330 330 330 329 328 328 328 326 325 324 324 324 325 325 326 327
314 311 308 309 309 310 312 312 312 312 312 313 313 312 311 311 311 311 310 310 312 312 313 313 313 315 315 315 315 315 317 319 316 312 315 325 335 340 340 340 340 339 339 338 338 338 339 339 339 339 340 341 341 340 338 336 336 335 335 335 333 333 333 332 332 332 332 333 333 331 330 330 330 329 328 327 326 325 323 323 324 325 325 324 324 325
312 310 309 311 310 310 310 311 311 312 312 312 313 314 311 310 311 310 310 311 311 313 313 313 313 314 315 316 315 316 320 323 318 316 317 322 331 338 340 339 340 339 339 338 337 337 338 339 338 338 339 340 340 339 338 336 335 335 335 335 333 333 334 333 333 333 332 333 332 330 330 330 329 327 326 325 325 323 323 323 324 325 325 324 323 324
311 310 309 311 312 310 310 311 311 311 311 312 314 314 310 310 311 310 310 311 312 313 313 313 312 314 315 315 316 318 322 324 321 320 321 325 331 336 338 338 339 339 338 338 337 337 338 338 337 337 338 338 338 338 336 335 334 335 335 334 333 333 333 334 334 333 332 332 332 330 330 330 328 325 325 325 323 322 323 324 324 325 325 324 323 322
312 312 311 311 311 310 311 313 311 310 311 313 312 311 310 310 310 310 310 311 312 312 313 314 312 314 315 315 317 320 322 323 324 324 323 326 330 334 336 337 337 338 338 338 337 336 337 338 336 336 337 336 336 336 335 335 335 334 333 332 332 333 334 333 333 333 333 332 330 330 331 330 327 326 325 324 321 321 323 324 324 324 324 323 322 321
310 311 311 310 311 312 312 311 310 310 311 311 310 309 309 309 309 310 311 311 313 313 314 315 314 314 315 315 318 322 324 325 325 325 325 326 328 331 334 335 336 337 337 337 337 336 337 337 335 335 336 335 334 334 334 335 335 334 333 332 332 334 334 332 332 334 333 331 329 330 331 329 327 326 326 323 320 320 321 323 324 324 324 323 322 322
309 308 309 310 311 312 311 309 309 310 310 309 309 310 310 310 310 311 311 312 313 314 314 315 315 314 314 314 318 322 325 325 325 326 326 328 328 330 332 333 334 335 336 336 336 335 336 335 334 335 335 334 333 334 334 334 334 333 332 332 334 335 333 332 333 334 332 330 330 332 331 329 326 326 325 321 319 319 320 322 323 323 323 323 322 322
310 309 309 310 311 309 309 309 307 308 309 309 310 311 311 312 311 311 312 312 313 314 314 312 312 314 314 315 319 322 323 325 327 327 327 328 329 330 331 332 333 334 334 335 335 335 334 333 333 334 333 333 332 333 332 333 332 331 331 332 334 335 334 334 334 332 331 331 332 332 331 328 326 326 324 320 318 319 319 319 319 318 319 321 320 321
312 311 310 310 310 309 310 310 308 307 308 309 310 311 312 313 312 313 313 313 314 315 313 310 311 313 313 315 320 323 325 326 327 327 327 328 328 330 331 332 333 333 333 334 334 333 333 332 332 332 332 332 332 331 331 331 331 330 330 333 335 335 335 334 332 331 332 333 333 332 330 327 326 326 322 319 318 318 317 315 314 313 314 315 316 316
314 313 310 310 311 310 310 311 311 310 308 309 310 311 312 313 312 313 313 312 313 315 312 310 312 313 313 318 322 324 327 328 328 328 329 329 329 331 332 332 332 332 332 333 333 332 330 329 329 330 331 331 331 330 330 329 329 330 331 334 335 334 334 334 331 331 333 334 333 331 328 326 326 324 320 319 318 316 314 314 313 313 313 313 313 314
314 313 311 311 311 310 310 311 312 311 309 309 310 311 313 314 313 313 313 313 314 314 313 311 312 314 316 320 323 325 328 328 328 328 329 330 330 331 332 332 332 332 332 332 332 331 329 327 327 328 329 330 329 328 329 328 328 329 331 333 334 334 334 333 331 331 333 333 331 328 327 325 324 322 319 320 319 315 315 316 316 315 315 315 315 315
312 313 312 311 309 309 310 311 311 311 310 309 308 310 312 314 315 314 312 313 314 314 314 313 314 317 318 319 322 326 328 328 328 328 328 330 330 331 332 332 333 333 332 332 330 329 328 327 327 327 328 329 328 327 328 328 328 328 330 333 334 333 333 332 331 332 333 331 327 326 326 325 324 323 321 320 319 316 317 318 318 318 318 318 318 317
311 313 313 311 310 309 310 311 310 311 312 310 309 311 311 311 314 315 312 311 312 313 315 315 317 320 319 319 323 327 327 326 327 328 328 329 330 330 330 330 332 332 332 331 330 329 328 327 327 327 327 327 328 327 328 329 328 328 330 333 333 332 332 331 329 331 332 328 325 326 326 325 326 325 321 319 318 316 318 319 319 319 319 320 320 318
311 314 314 312 312 311 309 309 309 309 311 310 311 312 310 309 313 315 313 313 313 313 314 316 320 323 321 321 324 327 327 326 326 327 328 329 329 329 329 329 330 331 331 331 331 331 330 327 327 327 327 327 327 327 329 329 328 329 331 333 332 331 331 329 328 330 330 326 325 326 327 327 327 326 322 319 317 316 317 319 320 320 320 320 319 316
311 314 315 312 312 312 309 309 310 309 309 310 311 311 311 312 314 313 313 314 314 313 314 317 320 321 321 323 325 326 327 326 326 326 326 327 328 328 328 329 329 329 330 331 331 331 330 327 327 328 327 327 327 327 330 329 329 330 332 333 332 332 331 329 328 330 327 325 326 327 327 328 327 326 324 320 317 315 316 319 319 319 320 320 319 315
311 314 315 312 311 311 310 312 314 312 310 309 310 310 311 313 314 313 314 314 314 314 315 317 319 320 320 321 322 324 325 325 326 325 326 326 327 327 328 328 329 329 329 329 329 329 328 327 328 328 328 328 327 328 329 329 329 330 331 333 333 332 332 330 329 329 326 325 328 328 328 328 327 326 325 321 319 316 316 318 318 318 319 320 319 316
313 313 314 314 312 312 313 314 315 314 312 311 311 312 313 313 313 313 313 313 313 315 315 315 317 319 320 319 320 323 324 324 325 325 325 323 323 324 325 327 328 328 328 329 329 328 328 328 328 329 329 329 328 328 329 329 330 330 330 332 333 332 332 330 329 328 325 325 328 328 328 327 326 326 325 323 321 318 316 318 318 318 319 319 319 316
314 313 315 317 315 314 315 313 312 312 312 311 312 313 314 314 313 314 314 313 314 315 315 315 315 318 320 319 322 323 323 323 324 324 321 318 318 318 320 323 325 325 327 328 328 329 329 329 329 329 329 329 329 328 329 329 329 330 330 330 331 332 331 329 330 328 324 325 327 328 328 327 326 325 323 323 321 317 315 316 317 318 318 319 319 316
315 315 316 317 315 315 314 311 310 312 313 313 315 314 313 315 315 314 314 315 316 315 315 315 315 318 320 320 322 322 321 320 320 320 317 315 314 314 316 319 321 323 324 326 327 329 329 329 329 329 329 329 329 328 329 330 329 329 329 329 330 330 330 329 329 327 324 324 327 328 328 327 325 324 323 323 320 315 314 315 316 318 319 319 319 315
318 317 317 317 316 315 312 310 310 312 314 316 318 316 314 315 316 315 315 316 318 317 317 316 315 319 321 321 322 321 318 316 316 316 315 314 312 312 313 315 317 319 322 324 326 327 327 327 327 327 328 329 329 329 329 329 329 329 328 328 328 329 329 329 328 326 324 325 327 327 327 327 324 324 325 322 317 314 314 315 316 317 318 319 317 312
319 318 318 316 317 317 315 314 313 313 315 316 316 315 315 314 314 314 315 316 316 317 318 317 316 319 322 322 321 319 316 314 312 312 312 312 311 311 311 313 315 318 319 321 323 324 324 325 326 326 327 329 329 329 329 328 328 329 329 328 328 328 329 329 327 324 324 326 327 326 327 326 324 326 325 320 316 316 316 315 316 316 317 317 314 310
317 318 319 317 317 318 316 316 315 314 315 314 314 314 314 314 314 315 316 315 315 316 317 317 318 321 323 322 320 318 315 313 311 310 310 310 310 310 310 311 313 316 318 318 320 322 323 323 324 325 327 328 328 328 329 328 328 329 330 329 328 328 329 329 326 325 325 326 327 326 326 325 325 327 324 319 317 319 318 317 317 316 317 316 312 309
316 315 317 318 318 317 315 313 311 312 315 315 315 314 314 314 313 313 315 315 316 316 317 318 322 323 325 323 319 318 315 312 310 309 309 309 309 310 310 310 311 314 316 317 318 320 321 322 323 324 325 326 327 327 326 325 326 328 329 329 329 329 329 327 326 326 326 326 326 326 326 326 326 326 322 319 319 320 320 320 319 318 317 315 311 309
318 315 314 317 317 315 314 312 310 312 314 313 313 313 313 314 314 315 316 317 317 316 317 319 321 324 326 322 318 316 313 310 309 309 309 309 308 309 309 309 311 314 315 317 319 320 320 321 322 322 323 324 325 326 325 324 324 326 328 329 330 329 329 327 326 326 326 326 326 325 324 324 325 324 321 319 320 321 320 320 320 319 318 315 311 310
319 316 314 315 315 314 313 313 312 312 311 309 310 312 313 314 317 319 318 315 315 316 318 320 321 324 323 319 315 312 310 309 308 308 308 308 308 308 308 308 309 313 315 315 316 318 319 320 320 321 322 322 324 326 326 324 324 326 327 328 329 329 328 328 327 326 326 326 325 324 323 323 322 321 320 320 321 321 320 320 320 320 318 314 310 310
316 316 315 315 315 314 313 312 312 312 311 309 310 311 311 313 316 317 317 315 314 317 319 320 320 319 315 312 310 308 308 308 307 307 307 307 308 307 307 306 307 309 311 310 310 314 317 318 318 319 320 321 323 325 325 323 323 325 326 327 328 328 328 328 328 326 326 326 325 324 323 322 321 320 321 321 321 321 320 320 320 320 317 313 310 310
315 315 315 316 316 316 315 313 312 313 312 310 310 310 310 312 314 315 316 316 317 319 319 318 319 315 309 308 307 306 307 307 306 306 306 306 307 306 306 306 306 307 307 306 307 311 313 314 314 316 318 320 322 323 323 321 321 323 325 325 326 327 327 327 327 326 325 325 324 322 322 322 321 321 321 320 320 321 321 321 320 319 317 313 310 310
317 315 313 315 316 317 315 314 315 315 313 311 312 311 310 311 313 313 313 314 316 320 319 319 319 314 308 307 307 306 306 305 305 305 305 305 305 305 305 305 305 305 305 305 306 309 311 312 312 314 316 318 319 321 320 320 320 321 322 323 324 324 324 325 325 325 325 324 323 322 322 322 321 321 320 320 320 320 321 321 320 319 316 313 311 310
316 315 314 315 316 316 314 313 316 317 316 315 312 310 310 311 311 312 313 312 313 316 318 318 316 310 306 306 306 305 305 305 304 304 304 304 304 305 305 305 305 305 305 304 305 307 309 310 311 313 315 316 317 318 318 319 320 321 321 322 322 322 322 323 323 324 323 322 322 322 322 322 322 321 320 320 320 320 320 321 321 320 319 315 311 310
314 315 315 315 316 315 314 313 315 317 318 315 309 307 308 310 310 312 313 311 310 312 313 312 310 306 306 307 306 305 304 304 303 303 303 304 304 305 305 305 305 305 304 304 304 305 306 307 309 311 313 314 315 315 316 318 319 319 319 319 320 320 321 322 322 321 321 320 321 321 321 321 321 320 319 319 319 319 319 319 320 320 319 315 311 310
315 315 314 313 314 315 314 314 316 317 316 312 308 306 307 308 308 309 311 309 309 310 309 308 307 306 306 306 304 304 303 302 302 302 302 303 304 304 305 305 306 306 305 305 304 305 305 306 307 308 309 311 312 313 314 315 316 317 317 317 318 319 319 320 320 319 319 319 320 320 319 319 319 319 319 318 318 319 318 317 318 318 317 314 312 312
313 314 312 312 313 314 314 314 316 315 312 309 308 306 306 307 307 309 311 310 307 308 308 306 305 304 304 304 303 302 302 301 301 301 301 302 303 304 304 305 306 307 307 306 306 305 306 306 307 308 308 309 310 311 311 311 312 313 314 314 315 315 316 317 317 317 316 316 317 318 318 318 319 319 319 318 318 318 318 317 317 317 317 315 314 314
311 313 313 312 311 312 314 314 313 313 311 309 308 306 305 306 306 307 311 310 307 306 306 304 303 303 303 303 302 302 302 302 302 301 301 302 302 303 303 303 305 306 307 307 307 307 306 306 306 307 307 308 308 309 309 309 310 311 310 310 311 311 312 313 313 313 313 313 314 315 315 316 318 318 317 317 317 317 317 317 318 317 317 317 316 317
309 311 314 314 310 310 313 313 313 314 313 309 307 305 304 304 304 305 309 309 307 305 305 303 303 302 303 303 303 303 304 305 303 301 301 301 302 302 302 302 302 303 305 306 307 307 307 307 307 307 307 308 308 307 307 308 309 309 308 308 308 309 310 310 309 309 309 309 310 310 311 312 314 315 315 315 315 315 315 315 316 317 317 316 316 317
308 308 310 312 310 309 311 312 312 312 311 307 305 304 304 303 303 305 310 311 306 304 304 303 302 302 303 303 303 304 305 305 302 300 300 300 300 301 301 301 301 301 302 303 303 304 305 306 306 307 307 307 307 307 307 308 309 309 308 307 307 308 308 307 307 307 307 307 307 307 307 308 309 310 311 311 313 314 313 313 313 314 314 314 313 314
308 308 308 309 309 308 309 309 309 309 308 305 304 303 303 302 303 308 314 312 304 302 303 303 303 303 303 303 304 304 304 303 301 300 300 300 300 299 300 300 300 300 300 300 301 301 301 302 302 302 302 303 303 304 305 306 308 308 307 307 307 307 305 304 304 304 305 306 307 307 308 308 308 308 309 310 311 312 312 312 313 314 314 313 313 312
306 306 306 307 307 307 308 309 308 308 306 304 303 302 302 303 306 311 313 308 302 301 302 302 302 303 303 303 303 302 302 301 301 300 300 300 300 300 300 300 300 300 300 300 300 300 300 300 300 300 300 300 300 300 301 302 303 304 304 304 305 304 302 301 301 301 302 303 303 305 305 306 306 306 307 308 308 307 307 307 308 310 312 312 313 313
305 305 305 306 306 305 307 308 308 308 305 302 302 302 303 306 310 309 306 303 302 302 302 301 302 302 302 302 302 301 300 300 300 300 300 300 300 300 300 300 300 300 300 300 300 300 300 300 299 300 299 299 300 299 299 300 300 301 301 302 302 300 299 300 300 300 300 300 300 301 301 301 301 302 302 302 303 303 303 303 303 304 305 306 307 308
303 304 305 305 304 305 306 308 309 309 305 302 302 303 304 306 307 305 303 303 303 302 302 301 301 301 302 301 301 300 300 300 300 300 300 300 299 300 300 300 300 300 300 300 300 300 300 300 300 300 300 299 299 299 299 299 299 299 300 300 299 298 298 298 298 298 298 298 298 299 299 299 299 299 299 299 300 300 300 301 301 301 301 300 301 301
303 303 304 303 303 306 308 308 307 305 303 301 301 303 303 302 302 302 303 303 302 301 302 301 301 301 301 301 300 300 300 300 300 300 300 300 300 299 299 300 300 300 300 300 300 300 300 300 300 300 299 299 299 299 299 298 298 298 298 298 297 297 297 297 297 297 297 298 298 298 298 298 298 298 298 298 299 299 299 299 299 299 299 299 299 299
303 302 303 303 302 304 305 304 303 302 301 300 301 301 301 301 302 302 303 302 301 301 301 301 300 300 301 300 300 300 300 300 300 300 300 300 300 300 300 300 300 300 300 300 300 300 300 300 299 299 299 299 299 299 298 298 298 297 297 297 296 296 296 296 297 297 297 297 297 297 297 297 297 297 298 298 298 298 298 298 298 298 299 299 299 299
302 301 302 303 302 302 302 302 301 301 301 301 301 301 301 302 302 303 303 302 301 301 301 300 300 300 300 300 299 299 300 300 300 300 300 299 299 300 300 300 300 300 300 300 300 300 299 299 299 299 299 299 299 299 298 298 297 297 296 296 296 296 296 296 296 296 296 296 296 296 296 296 297 297 297 297 297 297 298 298 298 298 298 298 298 299
301 301 302 302 301 302 303 302 300 301 301 301 302 302 302 302 303 303 304 302 301 301 301 300 299 299 299 299 299 299 300 300 299 299 299 298 299 299 299 299 300 300 300 300 300 299 299 299 299 299 299 299 298 298 298 298 297 297 296 296 296 296 295 295 296 296 296 296 296 296 296 296 296 296 296 297 297 297 297 297 297 297 298 298 298 298
301 302 302 302 302 302 302 301 300 301 301 301 302 303 302 303 303 303 303 303 302 302 301 300 300 300 300 300 300 300 300 300 300 300 299 299 299 298 298 298 298 298 299 299 299 299 299 299 299 299 299 298 298 298 298 297 297 297 296 296 296 296 295 295 295 295 295 295 295 295 295 296 296 296 296 296 296 297 297 297 297 297 297 297 297 297
301 301 301 302 302 302 301 301 301 302 302 301 302 302 302 303 303 303 303 303 302 302 301 301 301 301 301 301 301 300 300 300 300 300 300 299 299 298 297 297 297 297 298 299 299 299 299 299 299 299 298 298 298 298 298 297 297 297 296 296 296 296 295 295 295 295 295 295 295 295 295 295 296 296 296 296 296 296 296 296 297 297 297 297 297 297
301 302 301 301 302 302 302 302 302 302 303 302 301 302 302 303 303 303 303 303 302 302 302 301 301 301 301 301 301 300 300 300 300 300 299 299 298 297 296 296 296 296 297 298 299 299 299 299 299 298 298 298 298 298 298 297 297 297 297 296 296 296 296 296 295 295 295 295 295 294 295 295 296 296 295 295 296 296 296 296 296 296 296 296 296 296
301 302 301 302 302 302 301 301 301 302 303 302 301 302 303 303 303 303 302 302 302 302 302 302 301 301 300 300 300 300 300 299 299 299 299 298 298 297 296 295 295 295 296 297 298 299 298 298 298 298 298 298 297 298 298 297 297 297 297 297 296 296 296 296 296 295 295 295 295 294 294 295 295 295 295 295 295 295 295 295 295 295 295 295 295 296
Wind_Speed
5 4 4 5 4 5 5 6 4 3 3 3 1 3 4 6 4 1 4 6 3 5 7 6 6 7 10 10 7 6 8 11 12 12 15 18 19 22 23 23 28 34 32 30 32 31 30 28 27 27 27 27 25 24 24 25 26 26 25 25 24 22 23 25 26 26 24 23 22 22 22 22 21 20 18 17 16 14 12 11 9 9 9 10 10 10
4 5 5 4 5 5 5 5 5 4 3 2 3 4 5 6 3 1 5 6 1 3 5 3 4 8 10 11 9 4 6 10 14 16 18 20 21 23 24 25 27 29 28 30 32 31 30 29 28 28 28 28 28 25 24 25 25 25 23 23 23 22 24 25 26 26 25 24 24 23 23 22 21 19 17 17 16 14 13 11 9 8 9 9 9 10
3 6 6 5 5 4 4 4 6 4 3 3 2 2 5 4 3 3 4 2 1 3 5 3 4 10 12 12 11 6 8 12 15 17 20 23 23 23 25 26 26 25 27 31 33 32 32 30 29 30 29 29 29 26 24 24 24 23 22 22 23 22 22 23 24 25 25 25 23 22 22 21 20 18 17 17 15 14 12 10 9 8 8 9 9 9
3 4 4 5 6 6 4 3 5 3 2 3 3 4 5 1 1 4 3 1 2 4 7 7 6 9 10 10 10 6 7 10 12 14 18 21 25 27 28 28 29 30 30 34 35 33 32 32 31 31 30 30 29 27 26 24 23 23 23 24 24 23 23 23 24 23 23 24 22 20 20 19 18 18 18 18 16 14 12 10 9 9 9 9 9 9
3 1 2 6 6 7 5 4 5 4 3 3 4 6 6 3 6 8 3 2 4 3 4 6 6 6 5 6 5 1 2 6 9 12 16 22 27 29 28 27 29 32 31 33 34 30 28 30 32 31 30 30 30 29 27 25 23 23 22 22 24 24 23 23 24 24 24 24 22 21 21 20 19 18 18 18 16 14 12 11 10 9 10 9 9 9
4 2 7 7 4 5 5 4 6 6 4 3 5 9 11 10 10 7 0 3 5 2 2 1 4 3 1 3 4 0 2 4 4 9 16 22 26 26 24 24 28 29 27 28 29 26 23 25 29 31 30 30 30 29 28 26 24 24 21 19 22 24 21 23 25 24 25 26 24 23 24 23 21 19 19 17 15 13 12 11 11 11 10 9 9 9
2 5 8 6 5 6 5 4 5 6 4 3 3 8 11 10 7 5 4 2 3 2 1 0 4 4 2 3 4 2 5 6 3 6 11 16 21 24 23 23 26 27 26 26 26 25 22 21 27 31 31 30 29 28 27 25 23 22 21 19 22 24 22 22 25 25 26 26 24 23 23 22 20 18 17 15 13 12 12 12 11 11 11 9 9 8
2 5 6 5 6 5 5 5 5 8 5 2 2 5 7 7 7 7 6 6 3 3 2 2 2 5 4 2 2 3 6 7 3 2 5 9 14 19 21 21 21 22 24 25 25 25 23 22 26 30 29 27 27 26 23 22 21 19 20 20 21 23 22 22 24 25 26 27 24 22 21 20 18 15 15 15 14 13 13 12 12 11 10 9 8 7
3 5 7 7 6 4 6 5 6 10 6 3 3 4 3 4 5 6 5 4 1 2 4 2 3 4 5 1 1 1 4 5 4 6 6 6 9 14 18 19 18 18 20 22 23 24 23 20 22 27 27 24 24 24 22 21 20 17 19 21 20 22 23 21 23 24 25 26 23 21 20 20 18 16 16 15 15 14 14 13 12 11 10 9 9 8
2 3 6 7 6 6 7 4 8 13 7 1 5 4 3 3 2 3 4 3 2 2 6 3 5 4 5 2 1 1 2 3 6 8 8 8 9 11 14 16 16 14 16 20 20 22 23 16 15 21 23 20 21 23 22 22 21 18 20 21 20 22 24 23 25 25 25 25 22 21 21 20 19 18 17 15 16 15 14 13 12 11 10 10 10 9
2 1 3 5 7 6 4 3 6 10 5 3 5 3 3 3 2 2 1 1 2 4 4 3 6 5 4 2 1 0 1 4 7 8 9 10 10 10 13 14 14 13 16 19 17 17 17 12 12 18 18 17 20 21 21 22 21 19 20 22 21 22 23 25 26 26 25 23 21 21 21 19 18 18 17 16 16 16 15 14 13 12 11 10 10 9
0 1 2 5 8 4 2 3 3 3 1 1 1 1 1 1 2 2 2 2 4 4 1 1 4 4 5 3 0 1 3 6 8 9 11 13 12 10 12 13 12 10 11 14 14 13 12 10 11 14 15 16 19 20 19 19 20 19 19 22 23 23 23 24 26 25 22 21 20 21 20 19 17 17 16 15 16 16 15 14 13 12 12 11 10 10
1 4 2 3 6 7 4 3 2 2 3 3 2 2 2 1 2 2 2 2 4 3 1 1 3 3 6 4 2 3 5 7 7 9 12 13 11 9 10 10 10 8 8 9 8 8 6 6 8 10 12 15 17 18 19 18 17 17 19 22 23 24 23 23 24 23 21 20 21 21 20 18 17 15 14 15 15 14 13 13 13 12 12 11 10 10
2 2 2 1 3 7 8 5 4 3 5 6 5 4 4 2 2 2 2 1 4 2 2 0 2 2 4 1 3 5 6 7 8 9 10 10 8 6 6 7 7 8 8 7 6 5 5 6 3 3 6 10 13 15 17 16 16 16 19 23 23 23 23 23 23 21 20 20 20 20 19 18 16 14 13 14 14 13 13 13 13 12 12 11 10 9
2 1 3 4 1 5 11 10 5 2 4 5 4 3 4 3 2 2 3 3 4 0 3 1 2 3 3 1 3 4 5 7 8 8 7 6 4 3 4 6 7 8 9 9 9 9 10 10 9 7 6 8 9 10 12 14 16 16 18 22 23 23 23 23 22 21 20 19 19 18 18 17 16 13 13 14 13 13 14 14 14 13 13 12 11 10
2 3 3 3 1 4 9 7 3 3 2 2 2 2 3 3 2 0 0 0 1 0 1 1 2 2 2 1 2 3 3 6 7 7 6 5 3 1 0 3 7 9 12 12 10 8 9 15 17 16 15 13 11 8 10 12 14 15 18 21 22 23 23 23 22 21 20 19 18 18 19 18 16 13 14 15 14 13 13 13 13 13 13 12 11 10
1 2 1 1 2 5 6 4 5 5 3 3 3 4 1 1 2 2 0 2 1 3 1 1 2 1 1 1 1 2 3 5 7 7 7 8 6 5 5 5 5 10 14 14 12 8 8 12 14 16 17 14 10 8 10 11 11 13 18 21 22 24 24 24 23 22 20 20 20 20 20 19 16 14 13 13 14 14 13 13 12 12 12 12 10 9
1 2 1 1 4 3 2 1 3 3 3 3 3 3 3 1 1 1 1 1 0 4 1 0 2 2 2 1 1 2 3 4 6 7 7 8 8 7 6 7 6 8 12 12 14 14 14 14 13 13 13 10 6 7 9 10 9 13 19 23 25 28 28 27 26 24 22 22 23 22 20 18 16 14 12 12 12 13 13 13 12 12 12 11 9 8
1 4 2 1 3 2 1 1 2 2 2 1 1 2 3 2 2 2 2 2 2 3 1 1 1 2 3 2 0 1 3 4 5 6 7 7 8 8 6 5 6 6 8 10 13 17 19 17 11 8 9 7 5 6 10 10 11 16 23 25 27 28 28 26 25 23 22 24 24 22 19 17 16 15 13 12 12 12 13 13 12 12 11 11 9 7
1 3 2 1 2 2 1 1 1 1 2 0 1 2 1 2 1 1 1 1 3 3 1 1 1 2 3 1 0 2 3 3 4 5 6 6 7 8 6 3 4 5 6 7 10 14 18 17 11 6 4 3 5 9 14 14 15 18 22 24 25 25 25 24 22 21 23 25 23 20 18 17 16 15 13 12 12 12 12 12 12 11 11 10 8 7
1 1 2 1 2 3 1 1 0 1 2 2 3 4 2 1 0 1 1 0 1 2 2 2 2 1 1 1 2 3 3 1 2 4 6 8 9 9 9 5 2 3 4 5 7 10 13 12 9 7 5 4 7 12 16 15 13 14 18 21 23 24 24 24 22 22 24 24 22 20 18 17 16 15 14 13 12 12 12 12 11 10 10 9 7 6
1 1 2 2 1 3 2 2 2 1 1 2 3 3 3 2 2 3 3 1 1 1 1 2 3 1 2 1 3 2 1 2 4 5 6 9 11 11 11 8 6 5 5 6 8 9 10 13 13 11 9 8 9 12 14 13 11 13 17 20 23 24 24 23 22 22 23 23 22 20 19 18 17 15 15 14 13 12 13 12 10 10 9 8 7 6
1 1 1 2 2 4 4 1 2 3 3 2 0 1 1 1 2 4 5 2 2 1 1 0 3 1 1 2 2 2 4 6 7 7 7 9 11 12 11 11 10 9 10 9 11 13 14 15 15 12 9 7 9 12 13 13 12 14 16 19 22 23 23 23 22 22 23 24 23 21 20 19 17 16 15 15 13 13 14 12 11 10 9 8 6 5
2 1 1 1 2 3 2 3 4 2 3 2 2 3 2 2 2 2 2 1 3 2 2 2 3 1 1 2 3 7 9 9 10 8 8 9 10 11 12 13 13 12 13 12 13 15 15 15 13 10 10 10 9 10 12 14 15 15 15 18 22 23 24 24 23 23 24 25 24 22 20 19 18 17 16 14 13 14 14 13 11 10 9 7 5 4
3 0 1 1 2 2 1 2 3 2 1 1 2 3 3 3 2 1 2 1 2 3 2 3 3 0 1 3 6 9 9 9 10 10 9 10 10 10 13 15 15 15 14 12 13 14 14 16 15 14 15 14 10 10 13 15 15 14 13 17 21 23 24 24 24 24 25 26 26 25 23 22 20 18 16 14 14 14 14 13 11 9 8 6 4 4
3 1 1 2 4 5 3 1 1 0 1 1 1 4 6 4 2 1 2 3 4 2 3 3 2 1 3 4 7 8 9 9 9 9 11 11 11 11 13 14 16 18 16 14 14 14 15 17 17 17 18 16 12 12 13 12 12 10 10 14 18 21 24 25 25 25 25 25 26 26 25 24 22 19 17 16 15 14 13 12 10 9 8 6 4 4
2 2 1 2 2 3 2 0 1 2 1 2 3 6 7 6 4 3 2 2 3 4 4 3 2 5 7 7 7 7 8 9 7 8 10 10 11 13 14 14 18 20 18 16 17 16 17 18 15 14 14 13 12 11 10 12 12 9 9 13 17 21 24 24 23 23 24 25 26 27 27 26 24 22 20 18 16 15 13 11 10 9 8 7 5 5
2 2 2 3 3 1 0 1 2 1 1 2 4 5 7 8 5 3 2 2 0 4 3 2 5 8 9 8 7 6 7 8 7 8 9 9 9 11 12 14 18 22 19 18 18 19 20 21 18 13 9 7 8 8 8 13 15 14 14 17 19 21 21 20 20 21 22 24 24 24 24 24 25 24 22 20 17 14 12 11 10 10 8 7 6 5
2 2 2 3 3 3 3 1 2 4 4 4 6 7 8 9 8 4 3 4 3 2 1 4 9 7 6 7 7 7 7 8 8 9 9 10 10 11 12 14 17 21 22 20 20 20 22 21 18 16 11 7 8 8 9 13 16 17 19 20 20 20 19 19 19 19 20 21 20 19 18 18 19 20 20 19 18 14 12 11 10 9 8 7 7 6
1 2 3 3 3 4 3 3 4 5 4 4 8 9 9 8 8 8 5 4 4 2 3 8 10 6 5 5 7 9 9 10 11 11 12 12 11 12 15 15 17 21 23 21 21 22 22 20 16 14 12 10 11 11 11 14 15 16 19 20 19 20 19 18 19 19 20 20 19 18 19 18 18 19 17 16 17 14 11 12 11 9 8 8 8 7
1 2 2 2 3 2 3 4 4 3 3 4 9 12 11 8 7 7 7 6 4 2 6 9 9 6 5 6 10 10 11 12 13 13 14 14 12 14 18 17 17 21 22 21 21 22 21 19 18 16 14 14 13 12 12 14 14 14 16 16 16 17 17 17 19 20 20 20 20 21 21 20 21 20 17 15 16 14 12 12 11 10 9 9 9 8
2 2 2 1 3 2 2 3 3 1 3 3 9 13 11 8 6 5 5 4 4 1 7 7 5 3 4 8 11 11 12 14 14 14 14 14 14 16 19 18 17 20 21 20 21 22 21 21 23 22 20 18 15 14 13 12 12 12 12 11 11 12 12 13 16 18 19 20 21 21 22 22 20 19 17 16 16 15 13 12 11 10 9 9 10 9
1 3 3 2 3 2 2 2 1 0 3 1 5 8 8 6 5 5 4 5 6 1 4 3 2 5 7 8 10 10 12 14 14 14 13 13 15 17 19 20 20 21 21 21 23 24 22 22 23 24 23 22 19 17 15 12 11 12 12 10 9 9 8 8 10 14 17 18 18 18 19 19 18 16 16 15 14 14 13 12 10 9 9 10 10 10
1 2 2 2 2 0 2 1 1 2 2 1 1 5 6 4 6 5 4 7 7 2 4 4 5 8 7 7 9 10 11 12 13 14 14 13 15 17 19 21 22 23 25 27 27 27 26 25 25 24 24 24 23 22 19 17 15 14 13 12 10 9 8 8 9 12 15 16 16 16 16 15 15 15 16 15 14 15 15 13 11 9 10 11 12 12
2 2 2 1 1 2 2 0 2 2 1 2 2 4 6 3 5 4 4 8 9 5 9 10 9 8 8 9 11 15 16 16 17 18 17 15 15 16 18 20 22 24 27 30 30 29 29 29 29 29 29 27 25 24 22 21 20 18 16 16 15 14 15 14 13 13 13 14 15 14 13 12 12 13 13 13 13 13 14 14 12 10 10 11 12 11
2 2 2 1 1 2 2 1 1 2 2 2 2 5 7 3 4 4 2 7 10 5 6 10 9 9 12 13 14 17 21 23 23 22 20 19 18 19 21 21 22 24 26 26 27 27 27 28 29 30 30 29 27 26 25 24 23 22 22 22 22 22 22 20 18 17 17 17 16 13 11 10 10 10 11 11 10 10 11 12 12 11 10 10 10 10
2 2 2 2 1 1 3 3 2 3 2 3 2 4 5 4 5 4 1 4 7 5 4 9 10 11 13 15 16 18 21 22 20 17 18 20 21 22 23 23 22 22 22 22 23 25 25 26 27 27 27 28 27 27 26 25 24 25 26 25 25 25 24 23 22 21 20 20 18 14 13 11 9 9 9 9 8 9 9 9 9 9 9 9 10 10
1 2 2 2 1 0 3 4 2 2 1 3 4 5 5 5 6 5 3 2 6 5 5 9 10 11 12 14 14 13 11 12 9 8 13 18 20 21 22 21 21 21 20 20 20 21 22 23 23 22 22 24 25 25 24 23 23 24 26 26 25 25 24 23 22 20 19 18 16 14 13 12 10 9 9 8 7 7 7 7 7 8 8 8 9 9
6 3 1 3 2 1 2 3 2 2 1 3 6 8 8 8 6 4 2 0 4 6 6 8 10 10 9 8 8 5 4 6 4 4 10 16 19 20 19 19 19 19 19 20 20 20 21 20 20 19 19 20 21 20 19 18 17 19 21 22 22 22 23 22 20 18 17 17 16 14 13 12 10 9 8 7 5 4 4 5 6 6 7 7 7 7
6 3 2 4 3 2 3 3 3 2 2 4 8 12 13 7 1 2 1 1 3 5 8 9 10 10 8 8 8 4 2 4 7 8 13 17 18 18 18 17 17 17 19 20 21 22 23 23 22 22 21 21 20 17 15 13 13 15 17 17 16 18 20 19 18 16 15 13 12 11 10 9 9 8 8 7 5 4 3 3 5 7 8 8 7 7
3 2 2 4 4 3 4 4 3 2 2 5 11 16 12 3 3 0 3 1 4 7 9 9 10 9 7 7 8 7 8 14 18 19 19 17 16 16 16 15 16 17 18 19 20 21 22 23 24 23 23 21 19 17 15 13 13 14 15 14 14 16 17 17 15 14 12 11 10 9 8 7 6 5 5 4 3 2 2 2 4 6 8 9 9 10
2 2 3 3 2 2 2 3 3 2 2 9 18 17 8 1 1 3 3 3 8 10 10 8 9 8 8 11 15 17 19 21 22 21 20 17 16 16 15 14 16 17 17 17 17 17 18 20 21 22 22 20 18 16 14 13 14 16 15 14 16 16 15 14 13 12 11 10 9 8 7 6 6 5 3 3 2 0 1 2 3 3 4 5 7 9
3 1 2 3 2 1 2 3 3 2 4 16 19 10 4 4 2 2 4 7 10 11 9 8 8 9 13 19 22 22 20 19 19 20 19 18 17 16 14 14 15 15 15 16 16 16 17 19 20 20 20 18 17 16 14 13 14 15 14 16 17 16 14 14 13 12 11 11 10 9 8 7 7 6 4 3 2 2 2 3 4 5 5 5 5 6
4 2 2 2 2 2 3 4 3 1 8 17 13 4 4 6 1 6 9 12 13 11 10 10 11 15 21 25 24 21 20 19 20 18 17 17 16 15 14 13 12 13 13 14 14 14 14 16 18 19 18 17 16 16 16 15 14 14 15 17 16 15 14 13 12 11 11 11 10 10 9 8 8 7 6 5 4 3 3 3 4 5 5 6 6 6
5 3 2 4 3 4 5 4 2 2 7 11 8 4 5 5 7 11 14 16 15 12 12 16 19 21 24 24 23 21 19 18 18 17 16 16 15 13 13 12 11 11 11 11 12 11 11 14 15 16 17 17 16 17 17 16 15 16 17 17 15 14 14 13 12 11 11 11 11 11 10 10 9 8 7 6 6 5 4 3 3 3 4 5 5 6
4 2 1 3 3 4 7 8 5 5 8 9 8 8 10 13 14 15 17 18 16 15 18 22 24 24 22 22 21 21 20 19 19 18 16 15 14 13 12 11 10 10 9 9 10 9 9 11 12 13 15 16 16 16 17 16 16 16 16 15 14 14 14 13 12 11 11 11 11 11 10 10 10 9 9 8 8 7 6 6 5 4 4 4 5 5
4 4 2 2 1 2 5 7 7 7 8 8 10 13 16 18 18 17 19 19 18 20 23 25 25 24 22 22 22 21 21 19 17 17 16 15 15 13 12 11 10 9 9 9 9 8 8 9 10 10 12 14 14 15 15 15 15 15 14 13 13 13 13 13 13 13 13 13 12 12 11 10 9 9 9 8 8 8 8 8 7 7 6 5 5 6
3 4 3 3 4 3 4 4 6 9 11 10 12 16 18 19 19 19 20 20 19 19 20 22 23 23 23 22 21 20 17 15 14 14 14 13 14 13 12 12 10 9 8 8 8 7 6 7 8 9 10 12 13 13 13 13 13 13 12 12 12 12 11 11 12 13 13 13 13 13 13 12 11 10 9 8 8 7 7 7 7 7 7 7 7 7
3 2 2 2 4 5 5 4 5 9 11 11 13 16 18 18 19 18 19 19 19 19 18 18 18 18 19 19 18 16 14 13 11 11 12 12 12 12 12 11 10 9 8 7 7 5 5 5 7 8 9 10 11 11 12 12 11 11 10 11 11 11 11 11 11 12 12 13 13 13 13 13 12 11 10 8 8 7 6 6 6 6 6 7 7 7
3 3 1 1 4 5 3 2 2 4 6 7 10 15 16 16 17 18 18 17 17 18 17 17 16 14 14 14 13 12 12 12 10 10 10 11 10 11 11 11 10 9 7 6 6 5 5 5 6 7 7 8 9 9 10 10 9 9 9 9 10 11 11 11 12 12 13 13 14 14 14 14 13 11 10 8 6 5 4 4 4 5 5 6 6 6
4 2 0 2 6 5 4 6 8 8 7 7 10 13 14 13 14 14 15 15 15 15 15 15 15 13 11 10 11 10 10 10 9 7 7 8 8 8 9 10 10 9 7 6 5 4 4 5 5 5 6 7 7 7 8 8 7 6 7 8 9 10 10 11 12 13 14 15 15 15 15 15 14 12 10 8 5 4 3 4 5 6 6 7 7 7
Wind_Direction
175 176 194 200 175 157 175 195 196 156 133 122 189 262 273 275 280 139 245 260 246 270 276 275 269 262 269 271 263 239 226 227 223 213 208 204 206 210 210 209 209 210 213 214 214 215 216 216 216 218 222 225 227 226 224 221 216 212 210 210 211 210 206 198 194 195 193 189 190 187 184 181 180 179 179 180 179 181 187 195 200 202 201 198 196 201
175 207 216 192 160 155 173 177 152 140 155 182 233 264 279 268 285 270 261 276 232 241 265 261 268 264 263 269 270 236 213 230 221 209 208 207 208 211 211 213 214 213 214 216 217 217 217 217 218 221 223 225 226 224 222 219 215 211 210 212 216 212 206 202 198 193 189 192 193 188 185 184 182 180 179 179 180 186 193 197 201 199 196 193 189 197
188 225 224 188 163 129 102 139 150 153 171 195 214 253 266 266 312 282 249 273 193 224 270 277 270 272 271 273 273 248 220 235 226 213 210 206 206 211 211 211 213 215 215 217 219 218 217 217 218 221 224 226 227 225 221 216 211 207 208 214 219 214 207 205 203 195 190 196 195 187 186 186 182 180 178 180 184 190 195 195 193 192 192 188 184 190
193 244 232 178 160 135 107 133 147 144 175 197 207 239 258 270 354 271 231 186 212 231 270 282 282 275 271 270 272 253 229 243 242 231 223 213 209 212 213 208 206 210 213 215 218 218 218 218 219 222 224 226 227 226 222 215 208 207 210 214 216 213 209 209 208 201 196 200 196 187 186 185 182 180 177 181 186 190 194 192 187 188 185 180 178 182
216 276 122 141 162 164 149 142 158 190 223 215 213 233 257 236 222 246 277 331 282 245 248 268 272 263 257 258 255 199 221 256 252 241 231 222 218 218 216 209 207 209 211 212 213 213 213 216 219 222 223 226 227 227 227 221 213 210 208 211 216 215 210 208 208 204 199 198 195 187 184 182 179 178 180 183 186 188 191 188 184 182 177 174 173 176
239 177 134 130 163 180 171 176 188 204 230 240 215 220 236 237 227 231 309 351 292 264 149 259 273 258 205 247 244 152 316 284 248 231 229 224 220 220 215 210 212 215 214 213 212 209 209 212 218 221 222 225 227 228 229 227 220 214 205 206 218 217 207 202 201 198 196 197 195 188 183 181 178 178 181 184 185 186 186 184 181 178 174 172 170 173
233 163 158 153 165 179 192 216 200 192 220 266 218 208 224 234 227 211 184 200 262 280 123 280 287 283 272 249 258 306 302 290 265 234 238 230 221 220 217 213 214 215 215 216 214 210 209 208 214 220 221 224 227 227 229 227 220 212 202 201 216 216 208 201 194 190 194 197 195 189 184 183 182 180 178 178 179 180 180 180 178 177 175 169 165 168
150 153 168 170 164 172 202 228 198 179 199 251 176 184 198 208 211 202 196 209 249 318 286 199 241 271 273 238 247 299 291 285 299 306 272 246 233 226 224 225 224 221 219 220 217 212 211 210 214 219 220 223 226 224 223 217 209 201 192 197 210 212 207 200 192 188 193 197 195 188 184 185 185 178 172 173 175 175 177 177 175 175 173 166 163 165
131 170 184 173 166 189 210 215 175 173 208 250 156 157 165 177 197 188 192 218 236 316 274 203 170 251 270 222 177 276 273 280 332 350 331 291 259 240 231 233 235 233 228 224 222 219 218 217 217 220 219 221 223 220 215 210 204 190 184 195 203 202 199 192 189 191 194 196 193 187 184 185 182 173 170 173 175 177 176 172 171 170 167 167 171 171
85 204 197 168 172 211 216 194 162 178 208 215 138 129 95 107 129 161 189 208 153 248 262 205 170 238 279 270 204 207 247 294 331 331 325 316 288 253 239 238 237 237 233 227 227 227 227 224 217 218 218 216 216 214 212 213 208 188 182 194 198 194 191 186 187 194 194 193 191 188 186 185 178 169 170 175 178 178 174 171 170 168 169 174 177 175
53 110 157 179 206 218 210 172 171 186 185 103 133 138 94 101 104 124 167 164 177 238 259 192 182 226 282 288 225 211 347 323 318 314 316 318 301 259 237 238 238 238 237 232 231 230 229 225 216 217 213 208 211 211 208 210 209 197 189 193 192 190 188 185 189 194 191 189 190 188 186 184 178 171 173 179 179 176 171 170 170 170 176 179 180 178
360 177 149 217 219 188 148 180 183 198 190 113 168 180 151 141 129 130 133 150 222 244 317 81 172 198 246 258 89 18 345 325 312 313 314 311 299 264 233 232 236 238 236 231 231 232 230 225 218 213 205 205 209 209 206 202 202 200 193 189 187 189 190 187 189 191 188 186 188 188 187 183 177 175 180 183 178 172 167 167 168 170 177 181 183 181
237 224 229 252 218 183 181 204 163 149 196 206 199 195 223 203 142 184 183 174 238 249 33 45 166 188 249 268 18 347 329 329 323 319 313 307 298 269 231 224 231 233 227 222 227 234 231 222 214 199 194 207 212 211 210 205 199 196 189 185 184 187 190 188 188 189 186 185 187 187 185 179 175 179 185 182 174 166 162 161 162 165 170 176 178 177
239 240 208 237 231 192 190 207 210 183 182 190 183 183 200 186 156 195 178 198 255 261 45 87 189 225 260 289 17 337 331 335 331 328 318 309 305 284 236 221 223 224 224 225 217 191 140 118 133 169 186 207 219 219 219 210 200 196 187 183 184 185 187 186 186 189 186 185 187 185 181 174 173 178 181 177 167 158 153 150 150 151 154 157 159 160
210 274 187 188 177 173 191 213 225 149 157 182 175 176 200 203 205 219 201 220 249 211 67 95 191 215 235 63 2 325 334 343 340 343 333 316 313 294 241 222 217 217 214 213 203 183 174 175 191 218 219 228 241 238 229 212 198 197 190 184 185 186 186 185 188 191 188 186 185 181 177 171 169 173 172 167 159 153 149 143 141 140 139 140 143 148
230 275 222 204 147 165 194 206 162 131 168 170 147 184 223 218 190 275 339 228 287 226 108 193 229 245 251 336 348 321 341 360 359 4 6 360 7 58 180 189 194 195 185 186 182 164 185 203 207 212 216 228 242 238 233 219 202 199 194 188 187 187 186 185 190 194 189 187 185 179 175 171 168 169 166 161 154 152 148 140 137 136 135 136 137 142
208 256 225 289 236 199 210 198 168 196 200 128 177 204 197 159 141 126 89 69 17 256 215 180 244 278 263 242 3 338 335 8 13 17 29 29 40 66 68 85 142 167 167 178 193 188 198 210 210 212 216 223 228 220 220 217 210 204 194 188 188 188 186 185 192 197 191 188 187 180 175 173 172 172 165 156 152 153 150 144 140 138 138 137 132 134
211 251 230 259 240 224 253 234 181 192 159 136 201 185 113 90 112 129 236 105 157 250 241 146 266 284 257 248 25 352 328 359 13 23 37 39 44 58 66 75 102 153 170 189 214 222 220 215 211 209 210 214 220 212 205 204 215 207 192 191 191 190 188 187 192 196 192 190 188 181 178 177 177 176 165 152 154 160 157 150 145 143 142 135 125 125
215 257 256 190 249 300 15 215 178 153 174 213 287 129 138 226 199 151 214 199 213 246 225 164 270 262 235 237 360 318 323 337 356 24 41 43 42 46 60 84 95 132 172 196 214 218 213 207 202 194 199 212 210 195 192 200 212 201 190 192 194 192 190 190 194 195 192 192 188 182 181 182 182 182 170 158 162 167 164 156 147 143 140 132 122 118
138 251 253 167 239 304 357 232 218 171 173 146 180 178 216 279 237 178 185 209 232 244 236 214 242 234 217 203 247 274 308 331 356 26 39 41 40 40 49 88 125 132 151 179 196 200 199 194 184 168 181 204 183 184 195 206 212 202 193 193 193 193 192 193 196 195 192 193 188 183 186 185 182 184 178 171 171 171 169 159 146 139 134 130 124 117
115 225 240 232 273 267 234 94 9 237 206 203 199 199 191 139 132 209 146 66 262 221 194 230 248 239 180 191 241 268 286 319 31 47 44 37 36 40 47 60 119 132 140 161 175 183 180 169 155 143 142 160 183 196 202 206 208 206 202 196 194 195 194 195 199 196 193 192 187 186 188 183 181 186 186 182 179 173 169 160 147 139 133 131 129 122
175 188 225 265 281 246 241 83 110 168 203 249 240 217 202 164 165 212 210 157 323 248 180 222 256 248 113 195 232 253 298 5 51 68 59 38 35 41 50 64 83 87 100 138 162 162 148 137 134 139 145 164 196 203 198 193 190 199 205 201 197 197 195 196 201 198 192 191 190 189 185 180 181 185 185 185 181 174 169 162 151 144 136 132 134 132
126 143 210 252 252 265 298 15 139 144 125 141 304 348 325 170 180 224 230 186 155 214 104 157 264 265 110 239 225 100 60 43 48 66 70 49 37 37 46 61 76 83 91 116 140 139 134 133 133 135 143 167 200 199 190 184 182 193 203 202 200 200 196 197 201 199 194 193 194 191 185 181 182 183 183 184 181 173 168 163 154 146 137 135 142 146
95 38 299 278 283 292 339 86 121 127 116 126 40 30 18 294 290 260 245 168 166 177 153 202 237 205 153 214 130 95 74 53 44 50 64 59 44 39 48 58 65 76 90 110 130 137 145 149 144 149 172 189 197 190 186 187 185 187 193 197 202 204 200 198 198 196 193 192 192 191 188 184 182 183 184 184 179 171 166 163 158 149 143 144 155 161
128 299 286 289 292 272 184 133 149 146 82 61 12 12 5 335 307 205 123 131 213 201 180 222 235 173 129 145 121 104 88 65 46 44 57 63 55 46 51 60 67 75 84 97 118 130 138 141 139 150 172 183 181 174 182 187 183 180 185 193 201 205 203 200 197 194 191 190 189 189 189 188 184 184 184 181 176 169 166 165 161 157 152 153 167 173
146 144 192 218 253 250 233 194 191 190 4 356 349 357 5 6 315 259 139 181 219 188 171 217 228 147 160 137 121 117 103 81 56 48 56 61 61 61 61 62 69 75 78 82 97 110 113 117 129 147 165 174 173 176 183 177 166 169 184 193 199 204 203 200 197 195 192 190 189 189 189 187 183 183 182 177 172 168 167 167 164 161 158 159 174 182
116 77 114 140 195 249 275 8 304 311 298 294 344 357 1 358 324 273 192 189 184 153 187 227 135 152 172 148 125 120 103 89 67 50 56 60 62 71 74 70 71 75 78 81 87 90 90 94 107 132 155 164 167 173 165 145 148 165 179 188 195 202 204 199 196 197 195 191 192 194 192 188 185 183 178 172 170 170 170 168 164 161 161 166 177 181
127 104 120 108 106 161 219 281 291 340 43 20 8 4 1 2 350 266 249 324 97 169 203 199 145 159 169 149 131 115 98 94 81 62 63 67 65 68 73 73 76 78 77 79 84 85 84 82 81 91 112 133 151 167 153 143 157 172 177 186 195 200 202 198 194 199 200 197 195 193 189 186 183 180 174 168 167 170 173 172 167 165 169 177 182 181
133 120 154 141 117 139 141 99 76 89 84 51 38 28 15 16 25 22 337 337 328 282 225 147 151 150 139 128 108 86 92 98 90 83 79 78 76 75 72 68 73 78 78 78 84 89 92 93 93 99 113 131 140 153 161 156 161 168 175 186 193 195 198 194 188 190 199 204 202 195 192 188 182 176 171 166 164 165 170 171 170 173 181 189 189 185
103 120 162 164 132 123 103 78 90 108 109 53 39 37 26 22 36 40 28 8 2 11 126 139 133 96 59 88 87 84 98 99 89 85 81 77 77 78 77 68 66 76 81 83 88 95 100 105 109 116 127 137 135 142 159 157 154 161 171 179 187 191 193 192 188 188 194 200 199 194 195 192 183 177 172 164 161 164 171 175 176 181 188 192 190 189
325 147 149 142 155 138 69 63 75 104 138 81 42 32 22 19 30 30 24 20 21 84 135 137 124 87 49 80 92 93 94 88 81 76 71 72 74 77 77 71 65 74 80 81 88 97 101 100 102 109 115 120 124 138 153 152 150 156 161 168 178 185 188 191 192 193 195 195 193 190 190 189 185 183 182 177 175 178 183 184 185 190 194 196 196 194
360 133 131 140 202 190 52 42 37 75 169 109 40 21 12 14 9 346 347 351 331 156 143 141 135 117 103 99 93 84 80 80 76 70 68 71 76 79 79 76 72 74 76 75 82 93 99 97 98 103 107 111 122 134 140 142 145 146 147 155 165 173 182 186 188 192 195 192 189 187 187 188 188 188 188 189 187 187 191 195 196 198 202 204 204 201
25 144 141 162 211 192 36 5 352 302 214 180 28 3 350 1 357 333 335 347 331 273 156 157 128 123 131 120 100 84 78 76 72 70 73 77 78 79 81 82 81 80 78 76 79 86 92 94 95 101 106 109 113 116 119 127 132 126 125 136 147 151 157 164 179 188 186 183 183 184 186 189 191 190 190 191 193 195 200 206 210 213 217 219 215 209
110 135 116 148 208 143 26 345 204 204 244 201 45 344 330 342 2 7 24 11 1 54 106 94 113 123 128 122 112 103 89 78 77 79 80 81 81 83 84 85 86 86 86 83 81 80 83 84 86 92 99 103 106 108 111 114 115 113 113 122 133 137 142 160 181 178 169 170 177 183 186 188 189 193 195 198 204 208 212 222 232 233 226 222 217 211
141 127 94 130 155 97 92 194 188 190 331 141 144 4 350 333 350 13 51 32 25 71 108 109 114 107 95 97 104 106 100 92 86 82 80 81 83 86 88 87 88 91 92 91 88 86 84 83 82 83 86 91 96 101 103 104 106 109 111 115 121 126 135 152 162 154 147 152 161 171 180 183 185 190 192 192 196 203 210 219 224 220 212 209 209 207
186 149 117 112 37 114 138 96 132 136 57 94 130 16 6 350 345 353 54 38 21 27 110 118 117 105 102 104 106 107 104 97 86 77 77 84 87 88 89 89 92 94 95 96 96 95 92 89 88 88 87 87 89 91 94 95 99 104 105 107 110 113 118 127 127 123 122 125 132 142 152 163 177 187 189 189 190 192 197 200 201 200 198 202 205 206
222 183 148 128 6 105 116 83 99 146 94 47 32 8 360 342 337 327 303 25 24 26 115 127 124 119 118 117 118 117 107 94 79 68 73 84 89 90 90 91 95 95 95 97 97 96 95 94 93 93 93 92 90 91 93 96 98 101 101 101 102 104 106 108 108 109 110 109 112 118 122 130 152 166 169 175 178 178 179 182 192 199 197 198 202 203
19 262 223 151 100 342 125 112 114 153 99 21 350 340 339 328 316 295 259 360 22 41 113 135 125 120 126 129 134 139 117 91 76 62 70 81 89 92 91 90 92 94 96 97 97 96 96 95 95 94 94 93 92 91 93 96 98 99 98 97 97 98 98 95 94 95 97 96 98 104 109 116 133 146 154 165 170 172 174 177 189 194 193 197 200 200
35 352 289 114 98 73 108 104 81 90 82 355 333 323 326 331 317 280 227 100 17 35 86 121 118 113 119 122 128 147 123 94 98 87 78 82 87 91 92 92 92 92 93 94 95 96 95 94 94 93 90 88 87 88 90 90 91 91 91 90 91 92 91 89 88 88 88 88 90 93 95 99 106 114 124 138 155 170 173 177 186 188 195 204 205 203
25 3 31 70 81 94 96 91 79 70 30 345 328 319 321 330 313 230 241 30 38 65 91 105 104 99 95 94 89 71 59 109 130 120 98 89 86 87 90 93 95 95 95 94 94 95 96 95 93 89 85 82 82 83 84 84 86 87 85 84 84 82 79 79 79 79 81 83 86 89 89 90 94 100 106 113 128 153 168 196 219 223 226 228 230 235
14 2 38 64 78 79 85 101 99 64 16 335 323 319 317 301 158 103 340 18 94 104 106 98 88 81 76 83 84 74 95 116 119 111 100 92 90 91 94 97 99 100 100 98 96 96 95 93 89 86 82 80 78 76 74 77 81 81 80 80 77 71 66 66 67 68 70 72 73 75 76 75 77 83 96 110 127 151 184 231 240 233 232 236 243 252
10 12 32 44 46 37 69 101 98 103 57 346 330 322 320 234 160 358 359 126 120 114 112 96 79 74 76 91 100 103 108 113 112 106 101 98 98 100 102 104 104 103 104 104 103 101 98 93 89 86 82 78 73 67 62 66 72 72 71 71 67 61 56 55 55 55 56 57 58 60 63 64 65 67 70 80 88 89 277 279 275 263 252 249 251 253
343 336 59 45 9 20 72 65 62 101 355 343 338 332 356 19 32 84 96 113 113 114 115 97 82 97 107 106 108 110 111 112 112 111 108 105 102 103 107 109 105 104 105 105 104 104 102 99 94 89 84 79 73 66 57 56 62 65 64 63 60 55 52 50 47 45 45 47 49 52 54 54 55 57 55 50 35 352 316 301 295 292 289 282 271 261
358 356 83 57 334 7 59 51 43 15 328 339 347 355 356 357 75 131 111 106 108 110 109 98 97 113 116 113 113 114 115 117 119 118 118 117 114 112 112 111 108 105 103 102 101 99 97 95 92 90 85 78 71 65 56 52 56 61 62 62 59 55 53 52 49 48 46 46 46 47 46 44 42 40 39 36 25 3 342 324 308 296 291 290 288 284
25 20 79 69 44 55 72 68 37 358 348 354 9 26 21 50 119 134 122 114 111 111 114 110 110 116 118 117 119 120 121 125 127 126 126 125 123 121 118 114 111 107 103 101 99 94 87 87 89 87 83 75 66 60 55 50 50 57 63 66 67 65 63 61 59 58 55 52 48 44 39 35 29 24 21 20 16 9 357 345 324 294 283 283 281 281
35 30 102 78 77 92 77 59 38 25 22 25 43 67 87 104 118 123 119 116 116 123 126 122 119 120 121 121 123 124 126 130 131 129 126 124 123 123 120 116 113 111 108 107 103 96 88 87 86 83 81 75 67 60 56 51 49 54 60 63 64 65 66 68 68 67 65 61 55 48 41 33 25 19 12 5 360 356 350 344 335 322 310 296 282 275
35 41 65 66 75 115 71 42 30 37 39 46 71 88 100 108 109 105 106 112 122 128 127 125 124 123 123 124 126 127 128 128 125 122 119 116 114 112 111 110 111 113 115 114 110 105 99 95 91 87 83 79 73 66 60 56 56 59 62 63 61 60 60 60 61 60 59 56 51 47 42 34 27 20 10 359 352 346 340 335 329 323 321 314 302 294
15 27 39 47 50 67 73 56 59 65 61 67 87 97 103 107 104 100 101 107 115 120 123 125 125 124 125 127 128 128 126 124 121 118 116 113 108 102 99 99 102 109 116 118 117 113 105 95 92 88 84 81 77 70 63 60 61 63 65 65 64 64 63 63 61 57 53 49 44 39 34 29 24 20 10 359 348 341 336 331 323 320 318 312 308 307
339 18 20 52 74 85 93 96 91 79 68 67 86 101 109 109 107 106 107 107 109 114 118 123 124 122 123 125 126 127 126 127 125 121 118 116 108 97 91 91 96 106 116 122 126 124 109 93 87 83 79 78 75 69 62 59 60 63 64 63 63 64 65 66 65 60 55 51 45 39 34 29 24 20 13 3 350 342 338 329 317 313 311 306 304 305
21 86 135 114 96 96 104 131 137 100 78 77 95 105 110 108 106 110 114 113 113 115 117 122 127 128 123 119 118 118 117 123 128 124 119 113 100 88 82 80 84 96 113 129 135 130 116 101 88 77 75 75 71 66 59 51 49 55 60 60 61 62 62 62 60 57 52 47 42 37 33 29 25 22 20 15 4 354 349 344 335 330 323 319 318 315
21 66 334 88 89 89 107 126 126 114 106 116 119 115 112 109 105 108 113 116 118 119 118 120 129 140 142 136 131 124 113 113 119 117 107 98 86 75 68 62 61 71 87 108 123 120 112 101 84 74 75 72 66 64 57 46 43 50 53 54 57 58 57 55 53 50 46 41 36 32 28 25 23 23 25 28 34 39 33 25 18 8 355 347 345 343